Location: El Álamo
(40.2307°N, 3.9945°W)
Time: 04:52:21
(UTC+00:00)

Cosmos 2360 Rocket - Pass Details

Date: 19 May 2025
Orbit: 834 x 842 km, 71.0° (Epoch: 23 June)

Event Time Altitude Azimuth Distance (km) Brightness Sun altitude
Rises 23:10:54 0° 347° (NNW) 3,390 6.6 -28.1°
Reaches altitude 10° 23:13:51 10° 1° (N) 2,452 5.5 -28.3°
Maximum altitude 23:18:19 24° 54° (NE) 1,680 3.9 -28.5°
Enters shadow 23:19:40 22° 75° (ENE) 1,764 3.8 -28.5°
